Zurück zum Katalog

STARLINK-32478

AktivKommunikationVLEO
NORAD 61726·PAYLOAD·🇺🇸 United States

Gestartet Oct 30, 2024 von Cape Canaveral Space Force Station

Loading…

Nächste Überflüge (nächste 24 Stunden)

TLE

AktuellSource: CelesTrak SupGP

Epoche: Sep 15, 2026, 02:41 UTC

1 61726C 24196V   26258.11229167  .00028007  00000+0  82719-3 0  2580
2 61726  53.1577 299.2305 0001126  97.1211 128.8974 15.34387003    17

Verfolge STARLINK-32478 in Echtzeit mit AllMySat

Download on the App Store